GEFSNE_500_meanwind_114.txt.gz
Wind_Speed
48 48 48 49 50 51 52 52 53 52 51 52 54 55 56 57 59 60 62 63 64 66 68 69 70 71 72 72 72 73 73 74 74 74 75 75 75 75
48 49 49 50 51 52 52 53 54 55 54 54 56 57 59 60 62 63 65 66 67 69 70 71 72 73 74 75 76 76 77 77 78 78 78 78 78 78
49 50 51 51 52 53 53 54 55 56 57 57 59 61 62 64 65 67 68 70 71 72 73 74 75 76 76 77 78 78 79 79 80 80 80 80 80 80
50 51 52 53 53 54 55 56 57 58 60 60 61 63 65 67 69 70 72 74 75 76 77 78 79 79 79 79 79 78 78 78 79 79 79 80 80 80
51 52 53 54 55 55 56 57 59 60 62 64 64 67 69 71 73 74 75 77 78 79 80 80 80 79 79 78 77 75 75 74 74 74 74 74 75 75
53 53 54 55 56 57 58 60 61 63 65 67 69 70 72 74 76 78 78 79 79 80 79 78 76 75 73 72 71 70 69 67 66 66 66 66 66 67
54 55 56 56 57 59 60 62 64 66 69 71 73 74 75 77 79 80 80 78 77 76 74 71 69 67 65 64 62 61 59 57 56 56 56 56 56 56
55 56 57 58 59 61 63 65 68 70 73 75 76 77 78 79 80 79 78 76 72 69 66 62 61 59 57 56 54 52 50 48 47 46 46 47 47 47
56 57 58 59 61 64 66 68 71 74 77 78 78 78 78 79 78 76 74 70 65 61 59 55 53 51 50 48 46 45 43 41 40 38 38 38 39 39
58 59 60 62 65 67 69 71 74 75 76 77 78 78 78 78 75 72 68 64 59 55 53 49 46 45 43 41 40 38 36 34 33 32 31 31 31 32
59 61 63 66 68 71 73 74 75 75 76 77 78 77 76 73 70 67 63 58 53 48 47 44 41 39 37 35 33 32 30 28 27 26 26 26 27 28
62 64 67 69 71 73 75 75 75 75 75 76 76 74 71 68 65 62 57 53 48 43 41 40 37 35 31 30 29 27 25 24 23 22 22 22 23 24
64 67 69 71 72 74 74 75 74 75 76 76 73 69 65 62 58 55 51 48 44 40 37 35 33 30 27 25 25 24 22 20 19 19 19 19 20 21
68 69 71 72 72 72 73 74 74 75 75 72 68 63 59 55 52 49 47 44 41 37 34 31 28 25 24 22 22 22 21 19 18 17 17 17 18 18
70 71 71 71 71 71 72 73 74 74 72 67 62 58 54 51 48 46 43 40 37 34 30 27 25 23 22 21 21 20 20 19 18 16 16 16 17 17
70 70 69 69 71 72 72 72 71 70 67 62 57 53 50 48 45 43 39 36 33 30 27 24 22 21 20 19 19 19 18 18 17 16 16 16 16 16
70 69 70 70 71 71 70 69 68 65 61 57 53 50 47 44 41 38 35 31 28 26 24 22 21 20 19 18 17 17 17 17 16 15 15 15 15 14
71 71 71 71 71 70 68 66 63 60 57 53 50 47 43 40 37 33 30 27 25 23 22 20 19 18 18 17 16 15 15 15 15 14 13 13 13 13
72 71 71 70 68 67 65 62 59 56 53 50 46 42 38 35 32 29 27 24 23 21 20 19 18 17 17 16 15 14 13 13 13 13 12 12 12 12
71 70 69 67 65 64 61 58 55 52 49 45 41 37 33 30 28 26 24 23 21 20 19 18 17 17 16 15 14 13 13 12 12 12 11 11 11 11
69 67 66 64 62 60 57 54 52 48 44 40 36 32 30 27 25 24 22 21 19 19 18 17 16 16 15 14 14 13 12 11 11 11 11 10 11 11
66 64 62 60 59 56 54 51 48 44 39 35 32 30 27 25 23 22 21 19 18 18 17 16 16 15 15 14 14 13 12 12 11 11 10 10 10 10
63 61 59 58 56 54 50 47 43 39 35 32 29 27 25 24 22 21 19 18 17 17 16 16 15 15 14 14 13 13 12 12 12 12 11 11 11 11

GEFSNE_500_meanwind_120.txt.gz
Wind_Speed
44 45 45 46 46 46 47 47 47 46 45 46 48 48 49 50 51 52 54 55 56 58 60 62 64 66 67 68 69 70 71 71 72 72 73 74 74 75
45 46 46 46 47 47 47 48 48 48 47 47 49 49 50 51 53 55 56 58 60 62 65 67 68 70 71 71 72 73 74 74 75 75 76 76 77 78
46 46 47 47 47 48 48 49 49 49 49 49 50 51 53 54 56 58 60 62 65 67 69 71 72 73 74 75 76 77 78 78 78 78 79 79 79 79
47 47 48 48 48 49 50 50 51 51 51 51 52 54 56 58 60 62 64 66 69 70 72 74 75 76 77 78 78 78 78 77 77 76 76 75 75 76
48 48 49 49 50 50 51 52 52 53 54 54 55 57 59 62 64 66 68 70 71 73 75 76 77 77 77 77 76 75 74 72 70 69 67 67 66 67
49 49 50 51 51 52 52 53 54 55 56 57 58 60 63 66 68 69 70 72 73 75 76 76 76 75 74 73 71 69 66 64 62 60 58 58 57 57
49 50 51 52 53 54 54 55 57 58 59 61 62 65 67 69 71 72 73 73 73 74 74 73 72 70 69 67 64 61 59 57 55 52 51 50 49 49
51 52 53 54 55 56 57 58 59 60 62 65 67 68 70 71 72 73 74 73 71 72 72 69 68 65 62 59 57 54 52 49 47 45 44 43 42 41
52 53 54 55 56 57 59 60 61 63 66 68 69 70 71 71 72 71 71 72 72 71 70 65 61 58 55 52 51 48 46 44 41 39 38 36 34 33
53 54 55 57 58 60 60 61 63 65 68 69 70 70 70 70 70 71 72 72 70 68 66 60 55 52 49 48 47 44 41 38 36 33 31 30 29 28
54 55 57 58 60 61 63 64 65 66 68 69 69 69 69 69 70 72 72 71 67 62 59 56 51 48 45 44 41 39 35 33 31 28 27 25 24 23
55 57 59 60 62 63 65 66 66 67 67 68 68 68 68 69 71 71 70 67 64 58 53 51 48 45 39 37 35 33 30 28 26 24 23 22 21 20
57 59 60 62 63 65 66 66 67 67 67 67 67 67 68 69 68 68 66 64 59 53 49 47 43 39 35 30 29 28 26 25 23 21 20 20 19 17
59 60 62 63 64 65 66 66 67 67 67 67 66 67 67 66 65 64 61 58 53 48 45 42 38 34 30 27 25 24 23 22 20 19 18 18 17 16
61 62 63 64 65 65 65 66 67 67 67 66 66 66 65 64 62 60 56 51 47 44 41 37 33 29 27 25 22 21 20 19 18 17 16 16 15 14
62 63 63 64 64 64 65 65 66 66 66 65 64 63 62 61 59 55 50 46 42 39 36 33 29 27 25 23 20 18 17 16 16 15 14 13 13 12
62 62 63 63 63 64 64 64 64 64 64 63 62 61 60 58 55 50 46 42 38 34 31 29 26 25 23 20 18 16 15 14 14 13 12 11 11 10
61 61 62 62 63 64 64 63 63 62 61 61 60 59 57 54 50 46 42 37 33 30 27 26 24 22 20 19 16 14 13 13 12 11 10 9 9 8
61 62 63 63 64 64 63 62 61 60 59 58 57 56 53 50 46 41 37 32 29 27 25 23 22 19 17 16 15 13 12 11 10 10 9 8 7 6
62 63 63 64 63 62 61 60 59 58 57 55 54 52 49 45 40 36 32 29 26 24 23 21 20 17 15 14 13 12 11 10 9 8 7 6 6 5
62 63 63 62 61 59 58 58 56 55 53 52 51 48 44 39 35 32 28 25 23 22 20 19 18 15 13 12 11 11 10 9 8 7 6 5 4 4
62 62 61 60 59 58 57 55 53 51 50 48 46 42 38 34 31 27 25 23 21 20 18 17 15 13 12 11 10 9 9 8 6 5 5 4 3 3
61 60 59 58 57 56 54 51 50 48 47 45 41 37 33 29 27 24 22 21 19 18 17 15 13 11 11 10 9 8 7 6 5 5 5 4 3 3

GEFSNE_500_meanwind_126.txt.gz
Wind_Speed
41 42 42 43 44 44 44 44 45 45 45 45 46 47 48 48 48 49 50 51 52 53 55 57 59 61 63 65 66 68 70 72 73 74 74 75 75 76
42 42 43 44 44 45 45 45 46 46 46 46 47 48 49 50 51 51 52 53 55 57 59 61 63 65 67 69 71 73 75 76 77 77 78 78 78 78
42 42 43 44 45 45 46 46 47 47 47 48 49 50 51 52 53 54 55 56 58 60 63 65 67 69 72 73 75 76 77 78 79 78 77 76 76 76
42 43 44 45 46 46 47 47 48 48 49 49 50 52 54 55 55 56 58 59 62 64 66 68 70 72 73 75 76 78 78 77 76 74 73 73 73 73
43 44 45 46 46 47 48 48 49 50 51 52 53 54 56 57 57 59 61 63 65 66 68 70 72 73 75 76 76 76 75 73 71 69 68 68 68 67
44 45 46 46 47 48 49 50 51 52 53 54 55 57 58 59 60 61 62 64 66 68 69 71 73 74 75 74 73 72 70 67 65 63 62 61 59 57
45 46 46 47 48 49 50 51 52 54 55 57 58 59 60 61 62 63 64 66 67 69 70 71 72 72 72 71 70 68 65 62 60 58 55 53 51 49
46 46 47 48 49 50 52 53 54 56 58 59 60 61 62 63 64 65 66 67 68 69 69 68 70 70 71 69 66 63 60 58 55 52 49 47 45 43
46 47 47 49 50 51 52 54 56 58 60 62 62 63 63 64 65 66 67 68 69 69 68 67 69 69 67 65 62 59 56 53 50 46 43 41 38 36
46 47 48 50 51 53 54 56 58 60 62 62 63 63 64 65 66 67 67 67 67 67 68 68 67 64 62 60 57 53 51 48 44 40 37 34 32 31
47 48 50 51 52 54 56 58 60 61 61 62 63 64 64 65 66 66 66 66 65 65 67 66 63 60 57 55 51 49 46 43 38 34 32 30 28 27
48 49 51 52 54 56 58 59 60 61 62 63 63 64 64 65 65 66 66 65 65 64 64 63 60 56 51 48 46 44 41 37 33 30 28 26 25 23
48 50 51 53 55 57 59 60 61 62 62 62 62 63 63 63 64 64 64 64 64 63 62 59 55 52 48 43 40 38 35 32 29 27 25 23 21 20
49 50 53 55 56 58 59 60 61 61 62 62 62 62 62 62 62 62 62 62 62 61 59 55 52 48 42 37 35 32 31 28 26 24 22 20 19 18
50 52 54 56 57 58 59 60 60 61 61 62 62 61 61 61 61 61 60 60 59 58 55 51 47 42 37 34 31 28 26 25 23 20 19 18 17 16
51 53 55 56 57 58 59 59 60 61 61 61 61 61 61 60 59 59 58 57 55 53 51 47 42 37 33 31 28 26 24 22 20 18 17 16 15 14
53 54 55 56 57 58 58 60 60 60 60 60 60 59 59 57 57 57 55 54 51 49 46 42 37 33 30 28 25 23 21 18 17 15 14 14 13 12
54 55 56 56 57 58 59 59 59 58 58 58 58 57 56 55 55 54 52 50 47 45 41 36 32 29 27 26 23 20 18 15 14 13 12 12 11 9
54 55 56 56 57 58 58 58 57 56 56 56 56 55 54 53 52 50 48 46 43 40 36 32 28 26 24 23 20 18 15 13 12 11 11 9 8 7
54 55 56 57 57 57 57 56 55 55 55 55 54 53 52 50 48 46 44 42 39 35 31 28 25 23 22 20 17 15 13 11 10 9 8 7 6 5
54 55 56 57 57 56 55 54 54 53 53 52 51 50 49 47 44 42 40 38 34 30 27 24 22 21 19 17 15 13 11 9 8 7 6 5 5 4
54 55 55 55 55 54 53 52 52 51 50 49 48 47 46 43 41 39 36 33 30 26 24 22 20 18 16 14 12 10 9 8 7 5 4 3 3 3
54 54 54 53 52 51 51 50 50 49 48 47 46 44 42 39 37 34 32 29 26 23 21 19 17 15 14 12 10 8 7 6 5 3 2 1 2 2

GEFSNE_500_meanwind_132.txt.gz
Wind_Speed
41 41 42 42 42 42 43 44 44 45 45 46 47 48 48 48 49 49 50 51 51 52 53 54 55 56 57 58 60 61 62 64 66 68 69 70 70 70
42 42 42 42 42 43 44 44 45 46 47 47 48 49 50 50 50 51 52 52 53 55 55 56 58 59 61 62 63 64 66 67 69 70 70 70 69 69
42 42 42 42 42 44 45 46 46 47 48 49 50 51 51 52 53 53 54 54 56 57 58 59 61 62 63 64 65 67 68 70 71 71 71 70 69 68
43 43 43 43 43 45 46 46 47 48 49 50 51 51 52 53 54 55 56 57 58 59 60 61 63 63 64 65 66 68 69 70 71 70 69 67 66 65
42 42 43 43 44 45 46 47 47 49 51 52 52 53 54 55 56 57 58 59 60 61 62 63 63 64 65 66 67 68 69 70 69 67 66 64 63 61
42 43 43 44 45 47 47 48 49 51 52 53 53 54 55 56 57 58 59 60 61 62 63 63 64 65 66 67 68 68 68 68 66 64 63 61 59 58
43 43 44 45 46 47 48 49 50 51 53 54 55 56 57 58 59 60 60 61 61 62 63 64 65 66 66 67 67 67 67 66 64 62 60 57 55 53
42 43 44 46 46 47 49 50 51 52 54 56 57 58 59 60 60 61 62 63 63 63 64 64 66 66 66 67 67 66 66 64 61 58 55 53 50 47
43 44 45 45 47 48 49 51 52 54 55 57 58 59 60 61 62 63 63 64 64 65 65 64 65 66 66 66 66 65 63 61 57 54 51 48 45 42
42 43 45 46 47 49 50 52 53 55 57 58 59 60 61 62 63 64 64 64 64 64 65 65 64 64 64 65 64 63 60 57 54 50 46 42 40 37
42 44 45 46 48 49 51 52 54 56 58 58 59 60 61 62 63 64 64 64 63 63 64 64 63 62 61 62 61 59 56 53 49 45 41 38 36 33
43 43 45 47 48 50 51 53 55 56 57 58 59 60 62 63 64 64 64 63 63 63 62 62 61 61 59 57 57 55 52 48 44 40 37 34 32 29
43 44 45 47 48 50 52 54 55 56 57 58 59 61 62 63 63 62 62 62 62 62 61 60 59 59 57 54 53 51 48 43 39 35 32 30 28 26
43 44 45 47 49 51 53 54 55 56 57 58 60 61 62 61 60 60 60 61 60 59 58 57 57 56 54 52 49 45 41 37 33 30 29 27 25 24
43 44 45 47 49 51 53 54 55 56 58 59 60 60 60 59 58 58 58 58 57 56 55 54 54 53 51 49 44 39 35 32 29 27 25 24 22 20
43 45 46 48 50 52 53 54 55 56 58 59 59 59 58 57 57 57 56 55 53 53 53 53 52 50 47 44 39 34 31 28 26 23 22 21 20 18
44 45 47 49 50 52 53 54 55 57 58 58 58 57 56 55 55 54 53 52 51 51 51 51 49 46 43 39 34 31 28 26 23 20 19 18 18 17
44 45 47 49 51 52 53 54 55 56 57 57 56 54 54 53 53 52 51 50 49 49 48 47 44 41 38 34 31 28 25 22 20 19 18 16 15 15
45 46 48 49 51 52 53 53 55 56 56 54 53 52 52 51 50 49 48 48 47 47 45 42 40 38 34 31 28 26 22 19 17 17 16 14 13 13
45 47 48 50 50 51 52 53 54 55 54 52 50 49 49 48 47 46 46 46 45 43 41 39 37 34 31 27 24 22 19 17 15 14 13 12 11 11
46 48 49 50 50 51 53 54 54 52 51 48 47 47 46 45 45 45 45 44 42 39 38 36 34 31 27 24 21 18 17 15 14 12 11 10 9 9
47 48 49 50 50 52 53 53 51 49 48 47 46 45 45 45 45 44 43 41 38 36 34 32 30 27 23 20 18 16 15 13 12 11 9 8 8 7
47 48 49 49 50 52 52 50 48 47 46 45 45 45 44 44 43 42 41 38 35 33 31 29 27 24 20 18 15 14 13 11 10 9 8 7 7 7

GEFSNE_500_meanwind_138.txt.gz
Wind_Speed
39 40 39 40 40 40 41 42 42 42 42 42 43 44 45 46 47 48 49 50 50 51 52 53 53 54 55 56 57 59 60 60 61 61 62 63 64 66
40 40 40 41 41 41 42 42 43 43 43 43 44 45 46 47 49 50 51 52 53 54 55 55 55 56 57 58 59 60 61 61 61 62 63 65 66 67
40 41 41 41 42 42 42 43 43 44 44 44 45 46 47 49 51 52 53 54 55 56 56 57 57 58 59 60 61 62 62 62 63 64 65 66 66 65
41 41 41 42 42 42 42 43 44 44 45 45 46 48 49 51 52 53 54 55 56 57 58 58 59 60 61 62 63 62 63 63 64 66 66 66 65 63
41 41 42 42 42 42 43 43 44 45 46 47 48 49 51 53 54 55 55 56 57 58 59 60 61 62 63 64 64 63 64 65 66 67 66 65 64 61
41 41 42 42 42 43 43 44 45 45 47 48 50 51 52 53 55 56 56 57 58 60 61 62 63 63 63 64 64 64 65 65 66 65 64 63 62 60
41 41 42 42 42 43 43 44 45 46 47 49 50 51 53 55 56 56 57 58 59 60 61 62 62 62 63 64 64 63 64 64 64 63 62 61 59 57
41 41 41 41 42 42 43 44 45 46 48 49 51 52 54 55 56 57 57 58 59 60 61 61 62 62 62 63 63 62 62 62 61 61 60 57 56 53
40 40 41 41 42 42 43 44 46 47 48 49 51 53 55 55 56 57 58 59 60 61 62 61 62 62 62 62 61 61 61 60 60 59 56 54 51 47
40 40 40 41 42 42 43 45 46 47 48 50 52 54 55 55 56 57 58 59 60 62 62 61 61 60 60 60 60 60 59 58 57 55 52 49 46 43
39 40 41 41 42 43 44 45 46 47 48 50 52 54 54 55 56 58 59 60 60 60 61 60 59 58 58 59 58 58 57 57 54 51 48 46 43 39
39 40 40 41 42 43 44 45 45 47 48 50 52 53 54 55 56 58 59 60 60 59 59 59 58 58 57 57 57 56 55 53 50 47 44 42 38 34
39 39 40 41 42 43 43 44 45 47 49 51 52 53 54 55 56 57 58 59 59 59 59 58 57 57 57 56 54 53 51 48 47 44 41 37 34 30
39 39 40 41 42 42 43 44 46 47 49 51 53 53 54 55 56 58 58 59 58 58 57 56 55 55 54 53 51 49 46 45 43 39 36 34 30 27
39 39 40 40 41 42 43 44 46 48 49 51 52 54 55 56 57 58 58 57 56 55 54 53 53 52 52 49 47 45 43 41 38 35 33 30 26 23
38 39 39 40 41 42 43 45 46 48 50 51 52 54 55 57 57 57 56 54 54 53 52 51 50 49 48 46 44 42 40 38 35 32 29 26 24 22
38 39 39 40 41 43 44 45 47 49 50 52 53 55 56 57 56 55 53 52 51 50 50 49 48 47 45 43 41 39 36 34 32 29 26 25 23 21
37 38 39 40 42 43 44 45 47 49 51 52 54 55 55 55 54 52 50 50 49 48 48 47 46 45 42 39 37 35 33 32 30 27 25 23 22 19
38 38 39 41 42 43 44 46 49 50 52 53 54 54 53 52 51 49 48 47 47 47 46 45 43 41 38 36 34 33 31 29 27 25 23 21 19 16
38 39 40 41 42 44 45 48 50 51 52 52 52 51 50 49 48 47 46 45 45 45 43 42 40 37 35 33 32 30 29 26 25 23 21 19 16 14
38 39 40 42 43 45 47 48 50 50 50 50 50 49 48 47 45 45 44 43 43 42 40 38 37 34 32 31 29 27 26 24 23 21 19 16 14 12
38 39 40 42 43 45 47 48 49 49 49 49 48 47 46 45 43 42 41 41 40 39 38 36 35 32 30 29 27 25 24 22 21 18 16 13 11 10
38 39 41 42 44 45 46 47 47 47 48 47 45 44 44 42 41 39 39 38 38 37 36 34 32 30 28 26 25 23 22 19 17 15 13 11 10 10

GEFSNE_500_meanwind_144.txt.gz
Wind_Speed
39 39 40 40 41 42 42 42 42 42 42 43 43 44 45 46 46 47 48 49 50 51 53 53 54 55 56 56 57 58 59 60 61 62 62 62 62 62
39 40 40 41 41 41 42 42 43 43 43 43 44 45 45 46 47 48 49 51 52 53 54 54 55 56 56 57 58 60 61 62 63 63 62 62 63 63
40 40 41 41 41 41 42 43 44 44 44 44 44 45 46 47 48 49 51 51 52 53 54 55 56 57 58 59 60 62 63 63 63 63 63 63 64 65
40 40 41 41 41 42 42 43 44 44 45 45 45 46 47 48 49 50 52 52 53 54 55 55 56 58 59 60 62 63 63 63 64 64 65 65 65 64
40 41 41 41 41 42 43 43 44 44 45 45 45 47 48 49 50 51 52 53 54 54 55 56 57 59 60 61 62 63 64 64 65 65 65 65 64 62
41 41 41 41 41 42 42 43 44 44 45 46 46 47 48 49 51 52 52 53 54 55 56 57 58 59 60 62 63 64 64 64 65 66 65 63 62 60
41 41 41 41 41 42 42 43 44 45 46 46 47 48 49 50 51 52 52 54 54 55 56 58 59 60 61 62 63 64 64 65 66 65 63 61 59 57
40 40 40 41 41 42 42 43 44 45 46 46 48 49 50 51 51 52 53 54 54 56 57 58 59 60 61 62 63 64 65 65 64 62 61 59 57 54
40 40 40 41 41 41 42 43 44 45 46 47 48 49 50 51 52 54 55 56 56 57 58 58 60 61 61 61 63 63 63 63 61 60 58 56 54 51
39 39 39 40 41 42 43 44 44 45 46 47 48 49 50 50 52 54 55 56 57 58 59 59 59 59 60 61 62 62 62 61 59 57 55 53 50 47
39 39 40 40 41 42 43 43 44 45 46 47 48 48 49 51 53 55 55 56 57 58 59 59 59 58 60 61 61 61 60 59 57 54 52 50 47 44
38 39 39 40 41 42 43 43 44 45 46 46 46 48 50 52 54 55 55 56 57 58 59 59 59 59 59 59 59 59 58 56 54 51 49 47 44 41
38 38 39 40 41 42 42 43 44 45 45 46 47 48 50 52 53 54 55 56 58 59 59 59 58 59 59 57 57 56 54 51 50 48 45 44 42 39
37 38 39 40 41 41 42 43 43 44 44 45 47 49 50 51 52 53 54 56 57 58 58 57 57 57 56 56 54 52 50 48 47 45 43 42 40 37
37 38 38 39 40 41 42 42 42 43 44 46 47 49 50 51 52 52 54 56 57 57 56 55 56 55 55 54 52 49 47 46 45 43 41 39 37 34
37 37 38 39 39 40 41 41 42 43 45 46 47 48 50 50 51 52 54 55 56 56 55 54 54 53 53 51 49 46 45 43 42 40 39 36 34 31
36 36 37 38 38 39 40 41 42 44 45 46 47 48 49 50 52 52 53 54 55 54 52 52 52 51 49 47 45 44 43 41 39 37 35 33 31 29
35 36 36 37 38 39 40 41 42 43 45 46 47 48 49 51 51 52 53 54 53 51 50 49 50 49 47 45 43 41 40 39 37 35 32 30 28 27
34 35 36 36 37 38 40 41 43 44 45 46 48 49 50 50 51 52 53 53 51 49 48 47 46 44 43 42 41 40 38 37 35 32 30 28 26 25
34 35 36 36 37 39 40 41 43 44 45 47 48 49 49 50 51 52 52 50 48 47 46 45 43 42 41 40 39 38 36 34 32 29 27 26 25 23
34 34 35 36 37 39 40 42 43 44 46 47 48 48 49 50 50 50 49 48 46 45 44 42 40 40 39 37 36 35 34 32 30 27 25 24 23 21
33 34 35 37 38 39 41 42 44 45 46 46 48 49 49 50 49 48 47 45 44 43 41 39 38 37 35 34 34 33 32 30 27 25 24 23 21 19
33 34 35 37 38 40 41 43 44 45 46 47 48 49 49 48 47 46 44 42 41 40 38 36 34 33 32 32 32 31 29 27 25 24 23 21 19 18

GEFSNE_500_meanwind_150.txt.gz
Wind_Speed
36 37 37 38 39 39 40 40 40 40 40 41 42 43 44 45 45 46 47 48 50 50 52 53 53 54 54 54 55 56 58 59 60 60 60 60 59 59
37 37 38 39 40 40 40 41 41 41 40 42 43 43 44 45 46 46 48 49 50 51 52 53 54 54 55 55 57 58 60 61 61 61 60 60 59 60
38 38 38 39 40 40 41 41 41 42 42 42 43 44 45 45 46 47 48 49 51 52 53 53 54 55 56 57 59 60 61 61 61 61 60 60 59 60
38 39 39 39 39 40 41 41 42 43 43 42 43 44 45 46 46 47 48 50 52 52 53 53 54 55 57 58 60 61 61 61 60 60 59 60 60 60
38 38 39 39 40 41 42 42 42 43 43 43 43 44 45 46 46 47 49 51 52 52 53 54 55 56 58 59 60 60 61 61 60 59 59 59 61 61
38 38 39 40 41 41 42 42 43 43 43 43 44 44 45 46 47 48 49 51 51 52 53 54 56 57 59 60 60 60 60 60 59 59 60 60 61 61
39 39 39 40 41 41 41 42 42 42 43 44 44 45 45 47 48 49 50 50 51 53 54 55 57 58 59 59 60 60 60 60 60 60 61 61 61 60
39 38 39 39 40 41 41 42 42 42 43 44 44 45 46 47 48 49 50 50 52 53 54 56 58 58 59 59 59 60 60 60 60 60 60 60 59 58
39 39 39 40 40 40 41 42 42 42 43 44 44 45 46 47 48 49 50 51 53 54 56 57 57 58 58 59 60 60 60 59 59 59 60 59 58 56
38 38 39 39 39 40 40 41 41 42 43 44 45 46 47 47 48 49 50 52 54 56 57 56 56 57 58 59 59 59 58 58 59 59 58 57 56 53
38 38 38 39 39 40 40 41 41 42 43 44 45 46 46 47 48 49 51 53 54 55 56 55 55 56 58 59 59 58 57 58 58 58 57 55 53 49
38 38 38 39 39 40 40 41 41 42 43 43 44 45 46 47 49 50 52 54 55 54 54 56 56 57 57 57 57 56 57 57 57 56 54 52 49 45
37 37 38 38 39 39 40 40 41 41 42 43 44 44 46 47 49 51 53 54 55 54 55 56 56 57 56 56 56 56 56 56 55 53 51 49 45 42
36 37 37 38 38 38 39 39 40 40 41 42 43 44 46 48 50 51 53 53 54 54 55 56 56 56 55 54 54 54 54 54 52 51 49 45 42 40
36 36 36 37 37 37 38 38 39 39 40 42 43 44 46 48 50 51 52 53 54 55 55 55 55 54 53 53 52 51 51 51 50 48 46 42 39 37
35 35 35 35 36 37 37 37 38 39 40 42 43 45 47 49 50 51 52 52 53 54 55 54 53 52 52 51 50 49 48 47 46 45 42 39 37 35
32 33 34 34 35 35 36 37 38 39 40 42 44 45 47 48 50 51 51 52 52 53 53 53 52 51 50 49 48 47 46 45 44 42 39 37 35 34
32 32 32 33 33 34 36 37 38 39 40 42 44 45 47 48 50 50 50 51 52 51 51 50 49 49 49 48 47 46 44 43 42 39 37 35 34 32
31 31 31 32 33 34 35 36 37 39 40 42 43 45 47 48 50 50 50 51 51 50 49 48 47 46 46 46 44 42 41 41 39 37 35 33 31 29
30 30 31 32 33 34 35 36 37 38 40 42 44 45 47 49 50 50 49 49 49 48 46 45 44 44 43 42 41 39 39 38 36 34 32 31 29 26
30 30 31 32 32 33 34 35 36 38 41 43 44 46 48 49 49 48 48 47 46 45 43 42 42 41 41 40 38 37 36 35 32 31 30 28 27 25
30 30 30 31 32 33 33 35 37 39 41 43 45 47 48 48 47 46 45 44 44 42 41 40 39 39 38 37 36 34 34 32 30 28 26 24 22 21
29 29 30 31 32 32 34 36 37 40 42 44 45 46 46 45 45 44 43 42 41 40 39 38 37 37 36 34 32 31 31 30 28 26 24 22 20 18

GEFSNE_500_meanwind_156.txt.gz
Wind_Speed
35 35 36 36 36 37 38 39 39 39 40 42 43 44 45 47 47 47 48 49 50 51 51 53 54 55 55 56 56 57 58 58 59 60 60 60 59 59
36 36 37 37 38 38 39 40 40 41 41 42 44 45 46 47 48 48 49 49 50 51 52 54 55 56 56 57 57 58 59 60 60 60 60 59 59 60
37 37 38 38 39 39 40 40 41 42 42 42 44 45 47 48 48 48 49 50 51 52 53 55 56 56 57 58 59 59 60 60 61 61 60 60 60 61
38 38 39 39 40 40 40 41 42 43 43 42 44 45 46 47 48 48 49 50 51 52 54 55 56 57 58 59 60 61 61 61 61 60 60 61 61 61
38 39 39 40 40 40 41 41 42 43 43 43 43 45 46 47 47 48 49 50 51 53 55 56 56 57 59 60 61 62 62 62 61 61 61 61 62 62
39 39 40 41 41 41 41 42 42 42 43 43 44 45 46 47 48 48 49 51 52 53 55 56 57 59 60 61 62 62 61 61 60 61 61 62 62 61
39 40 41 41 41 41 41 41 42 42 43 44 44 45 46 47 48 49 49 51 52 53 55 57 59 60 60 61 62 62 61 61 61 61 61 61 61 60
40 40 41 40 40 41 41 42 42 43 44 45 45 45 46 47 48 48 50 50 52 54 56 57 59 60 60 61 62 61 61 61 60 59 59 60 59 57
40 40 41 40 41 41 41 42 42 42 43 44 44 44 45 46 48 49 50 51 53 54 56 58 59 60 61 62 61 61 60 59 58 58 58 58 56 55
40 40 40 40 40 40 41 41 41 42 42 42 43 44 45 46 47 49 50 52 53 55 57 58 58 60 61 62 61 60 58 58 57 57 56 55 54 53
41 40 40 40 39 40 40 40 40 41 42 42 42 43 45 46 47 49 50 52 54 56 57 58 58 59 60 60 59 57 56 56 56 55 54 53 52 52
40 40 39 39 39 39 39 39 39 40 40 41 42 43 45 46 47 49 51 52 54 55 56 57 58 59 57 56 56 55 55 55 54 53 52 52 52 50
38 39 38 38 37 37 37 38 38 39 39 41 42 43 44 46 47 49 50 52 54 55 56 57 57 57 56 53 53 54 53 53 52 52 52 52 50 49
37 38 37 37 37 37 37 37 37 38 39 40 41 42 44 45 47 49 50 53 54 55 56 56 55 54 53 52 51 51 52 52 51 52 52 51 48 46
36 36 36 36 36 36 36 37 37 38 38 39 40 42 43 45 46 48 51 53 54 55 55 54 54 52 52 51 50 49 49 50 51 51 50 48 45 43
36 36 35 35 36 36 36 37 37 37 38 39 40 41 43 44 46 48 50 52 53 53 53 53 52 50 49 50 50 50 50 49 50 49 48 45 42 40
36 35 35 35 35 35 35 35 35 36 37 38 40 41 43 45 47 48 49 50 51 51 50 50 49 49 49 49 49 50 50 50 49 47 44 42 39 38
34 34 33 33 33 34 34 34 34 35 36 38 40 42 43 45 47 48 48 49 49 48 47 47 47 47 48 49 49 49 49 48 46 44 41 39 37 35
33 33 33 33 32 32 32 33 33 35 36 38 40 42 43 45 46 47 47 47 46 46 46 46 46 46 47 48 48 48 47 45 42 40 39 37 34 33
33 33 32 32 32 32 32 32 33 35 36 38 40 41 43 44 45 45 45 45 45 45 45 45 46 46 46 46 45 45 44 41 39 38 37 35 34 32
32 32 32 32 31 31 31 32 33 34 36 38 39 41 42 43 43 43 44 44 44 44 44 45 45 45 44 43 43 42 41 39 37 35 34 32 31 30
32 31 31 31 30 30 30 30 32 34 36 37 39 40 41 41 42 43 43 43 44 44 44 44 43 42 41 40 40 39 39 38 36 34 31 29 27 25
31 30 30 29 28 29 29 30 32 33 35 36 38 39 40 40 41 42 43 43 43 43 43 42 40 39 38 38 37 37 36 35 34 32 29 27 25 24

GEFSNE_500_meanwind_162.txt.gz
Wind_Speed
38 37 36 36 36 37 37 36 36 36 37 39 40 41 42 43 44 45 45 46 47 48 49 50 51 52 53 54 55 57 58 59 60 61 61 61 61 60
38 37 36 36 36 36 36 36 36 37 38 39 40 41 42 43 44 45 45 46 47 48 50 51 52 53 54 55 56 58 59 61 61 61 62 62 61 61
38 37 37 37 36 36 36 36 37 38 38 39 40 41 43 44 44 45 45 46 47 49 50 51 52 53 54 55 57 59 61 61 61 62 62 61 61 61
39 38 38 37 37 36 36 37 38 38 39 39 40 41 43 44 44 44 45 46 48 49 50 51 52 53 55 57 59 60 61 62 62 63 62 62 61 59
39 39 38 38 37 37 37 38 38 39 39 40 41 42 42 43 44 45 46 47 48 49 51 52 53 54 56 58 59 61 62 63 63 62 61 60 59 58
40 39 39 39 38 38 38 38 39 40 40 40 41 42 42 43 44 45 46 47 48 49 51 52 53 55 57 59 60 61 62 63 62 61 60 59 58 56
40 39 39 39 39 40 39 39 40 40 39 40 40 41 42 43 44 45 46 47 48 49 51 52 54 56 58 59 61 62 62 62 61 60 58 58 56 54
41 40 40 39 39 40 39 39 39 38 39 39 40 41 42 43 44 45 46 47 48 50 51 53 55 57 58 60 61 62 61 60 59 57 56 55 53 53
41 41 40 39 39 39 38 38 37 37 38 39 41 41 42 42 44 45 46 47 49 50 52 54 56 57 59 61 61 60 59 58 56 55 54 53 52 52
41 40 38 38 38 37 37 37 37 37 38 40 40 41 41 42 43 44 45 47 49 51 52 53 55 58 60 60 59 58 57 56 54 53 52 52 52 51
40 39 38 37 37 37 37 37 37 37 38 39 39 39 40 41 42 43 45 47 49 51 52 54 55 58 59 58 57 57 56 54 53 52 52 51 51 50
40 39 38 38 37 37 36 36 36 36 37 38 37 38 39 40 42 43 45 47 49 50 52 54 56 57 56 55 55 55 54 53 52 51 50 50 50 49
39 38 37 37 37 37 36 36 36 36 36 36 36 37 38 40 42 44 46 47 49 50 52 54 55 55 55 53 52 52 51 50 49 49 49 49 48 47
39 37 36 36 36 36 37 37 36 36 36 36 36 37 38 40 41 43 45 47 48 50 52 53 53 53 53 51 50 49 48 47 47 48 48 48 48 46
38 37 37 36 36 37 37 37 36 36 36 36 37 37 38 40 42 44 46 47 49 50 52 52 52 52 51 50 48 47 46 46 46 47 48 48 46 43
37 37 36 36 36 36 36 36 35 36 36 36 37 38 39 40 42 44 46 47 49 50 50 50 50 49 48 47 46 45 45 44 45 47 47 46 43 41
35 35 35 35 35 35 34 34 34 35 36 36 37 38 39 41 43 44 45 46 48 48 48 48 47 46 46 45 44 44 43 44 45 45 46 43 40 39
34 33 33 33 34 33 33 33 33 34 35 35 36 38 39 41 42 43 44 46 47 46 46 45 44 43 43 42 43 43 43 43 44 44 43 40 38 37
34 33 33 33 33 32 32 32 32 32 33 34 36 38 39 40 41 42 44 45 45 44 44 43 41 41 41 41 42 41 42 42 43 42 40 38 37 36
33 33 32 32 31 31 31 31 31 31 32 33 35 37 38 39 40 42 43 43 43 42 41 40 39 39 39 40 40 40 41 41 41 40 39 37 36 35
32 32 32 31 30 30 30 30 30 31 32 33 34 36 37 39 40 41 41 41 41 40 39 38 37 37 38 39 39 39 40 39 38 37 36 35 34 33
31 31 30 29 29 28 28 28 30 31 32 33 34 35 36 37 38 40 40 39 38 37 36 35 35 36 37 37 37 38 38 37 36 35 34 33 31 30
31 30 29 28 27 27 27 28 29 30 31 32 33 34 35 36 37 38 37 36 35 34 33 34 34 35 36 36 36 36 36 35 34 33 32 31 30 29

GEFSNE_500_meanwind_168.txt.gz
Wind_Speed
41 40 38 37 36 35 35 35 35 35 35 36 36 37 38 40 40 41 42 43 44 45 46 47 48 50 51 53 54 56 58 60 61 63 65 66 65 65
40 39 38 37 36 36 36 36 36 35 36 36 36 37 39 40 40 41 41 42 43 44 46 48 49 50 52 54 56 57 59 61 63 65 66 65 65 64
39 38 38 37 36 35 35 35 35 35 35 36 37 38 39 40 40 40 41 42 43 45 47 48 50 51 52 55 57 59 61 62 64 65 66 65 64 62
39 37 36 36 35 34 34 34 35 36 36 36 37 38 39 39 39 40 41 43 45 46 47 49 50 51 53 56 58 60 62 63 64 65 65 63 62 61
38 36 36 35 34 34 34 35 35 36 36 36 37 38 39 39 40 41 42 43 45 46 48 49 50 52 55 58 59 61 62 63 64 64 63 62 61 59
38 37 36 35 35 35 35 35 36 36 36 37 37 38 39 39 40 41 42 43 44 46 48 49 51 54 56 58 60 61 62 62 62 62 61 60 59 56
38 37 36 36 35 35 35 36 36 36 36 37 37 38 39 39 40 41 42 43 45 46 48 50 52 55 57 58 60 61 61 61 61 61 59 58 55 54
37 37 36 36 36 36 35 35 36 36 36 36 37 38 39 40 40 41 42 44 45 46 49 51 53 55 57 58 60 59 59 60 60 59 57 55 53 52
37 37 36 36 36 35 35 36 36 36 36 36 37 37 38 39 40 41 43 44 45 47 49 51 53 55 57 58 58 58 59 59 58 57 55 53 52 51
36 36 35 35 35 34 35 34 34 35 35 36 36 37 37 38 40 41 42 44 46 48 49 51 53 55 56 57 57 57 57 57 56 55 53 52 51 51
37 36 35 35 34 34 34 34 35 35 35 35 35 36 37 38 40 41 42 44 46 48 50 51 53 53 54 54 55 55 56 55 53 52 52 51 50 49
37 37 36 35 35 35 34 34 34 33 33 33 35 36 36 38 39 40 42 44 46 48 49 51 52 52 51 51 53 53 53 52 52 51 50 50 49 48
37 36 35 35 35 34 34 33 33 32 32 33 34 35 36 37 39 40 42 44 46 48 49 50 50 49 50 50 50 51 50 50 50 49 49 48 47 46
35 35 34 34 34 34 33 33 32 32 32 33 34 35 36 37 39 41 43 45 46 47 48 48 48 48 49 49 49 48 48 49 48 47 47 46 45 44
34 33 33 33 33 32 32 32 32 32 32 32 34 35 35 37 39 41 43 44 45 46 47 47 47 48 48 47 47 46 46 46 47 46 45 44 43 43
33 33 33 32 32 31 31 31 31 31 32 33 33 34 36 37 39 40 42 43 45 46 46 46 46 46 46 45 45 45 46 46 45 44 44 44 43 43
33 33 32 31 31 31 30 30 31 31 31 32 32 33 35 37 39 40 42 43 45 44 44 44 44 44 44 43 43 44 45 45 44 44 43 43 42 42
31 31 31 31 30 30 30 30 29 29 29 30 31 34 36 37 38 39 41 43 43 42 41 40 40 40 41 41 42 43 43 43 43 42 41 41 41 42
31 30 30 29 28 28 28 27 27 28 29 31 33 34 35 36 36 38 40 41 40 38 37 37 38 38 38 40 42 42 42 43 42 41 41 41 40 40
31 31 30 29 28 28 27 26 26 27 29 30 32 33 33 34 36 38 39 39 37 35 35 36 37 37 38 39 40 41 42 41 40 39 40 40 39 38
32 30 30 29 28 27 25 25 26 27 28 30 31 31 32 34 36 36 36 36 34 34 34 35 35 35 37 39 40 40 41 40 38 38 38 37 36 35
31 29 28 28 27 26 25 25 26 26 27 28 28 29 31 33 34 34 35 34 33 32 33 33 34 35 36 38 39 39 39 38 38 38 37 36 34 33
30 29 28 26 25 24 25 25 26 26 27 27 28 28 30 31 32 33 33 32 31 31 31 32 33 34 35 36 37 37 36 36 36 37 36 34 33 32

GEFSNE_500_meanwind_174.txt.gz
Wind_Speed
45 43 41 41 39 38 36 36 36 36 35 35 35 35 36 36 36 37 38 39 40 41 42 42 43 44 45 47 49 51 53 55 58 59 60 60 60 60
44 42 40 40 39 37 36 36 36 36 35 35 35 35 35 36 36 37 38 39 40 41 42 42 43 45 46 49 51 52 55 57 58 59 59 59 59 58
43 42 39 39 39 37 36 36 36 35 35 35 35 35 35 35 36 38 39 39 40 40 41 42 44 46 48 50 52 54 56 57 57 57 57 57 57 58
42 41 40 39 38 37 36 35 35 35 35 35 34 34 34 35 37 37 37 38 39 40 42 43 45 47 49 51 53 55 55 55 55 56 57 57 57 58
41 39 39 39 38 36 36 35 34 34 34 33 33 33 34 35 36 36 37 38 39 41 43 44 46 48 50 52 53 54 54 54 55 56 56 57 57 56
39 38 38 37 37 36 35 35 34 33 33 33 33 33 34 35 35 36 37 38 40 42 43 45 47 49 51 52 53 52 53 53 54 55 56 56 54 53
40 38 38 37 37 36 35 35 34 33 32 32 32 33 33 34 35 36 37 38 40 42 43 45 47 49 51 51 51 51 52 53 54 55 55 54 53 52
38 36 36 36 35 35 36 35 34 32 32 32 31 32 33 34 35 35 37 38 40 41 43 45 47 49 50 50 50 51 52 53 53 53 53 52 52 52
37 37 36 36 35 35 35 33 32 32 32 31 31 32 33 33 34 35 37 38 40 41 44 45 47 49 49 49 50 50 51 52 52 52 51 51 51 50
36 35 35 35 34 34 33 32 31 31 31 30 31 32 33 33 34 35 37 38 40 42 44 45 47 48 49 49 49 49 50 51 50 50 50 50 49 48
35 35 35 35 34 33 33 32 31 31 31 31 31 32 32 32 34 35 37 39 40 42 44 45 46 46 47 47 48 48 49 49 49 50 50 49 48 47
35 34 35 34 32 32 31 31 30 30 31 30 30 30 31 32 34 35 37 39 41 42 43 44 44 45 45 45 46 47 47 48 48 49 48 48 47 47
33 33 33 32 32 32 31 30 30 30 30 29 29 30 31 32 34 35 37 39 40 41 42 43 43 44 44 44 45 46 46 46 47 48 47 47 47 46
32 32 32 31 31 32 31 31 30 30 29 29 30 31 32 32 34 35 37 38 39 40 41 42 43 43 44 44 45 45 45 45 46 47 47 47 46 45
33 33 32 32 32 31 30 30 29 29 29 29 29 30 31 32 34 35 36 37 38 40 41 42 42 43 43 43 43 43 43 44 45 46 46 46 45 44
34 33 33 32 30 30 29 28 27 28 28 29 30 31 32 32 33 34 35 36 38 39 41 41 41 42 42 42 42 42 42 43 43 44 44 44 44 43
35 33 33 31 30 29 28 27 27 27 28 28 29 30 30 31 32 33 35 36 37 38 39 40 40 40 40 40 39 40 41 42 43 43 42 43 42 41
34 33 31 29 29 28 27 26 26 27 27 28 28 29 29 30 31 32 33 35 36 37 38 39 38 38 38 37 37 38 39 40 41 41 41 41 40 40
32 30 29 28 28 27 26 26 26 26 26 26 26 27 28 29 30 32 33 34 36 36 37 37 36 35 34 34 35 36 37 39 40 40 40 40 39 39
31 30 29 28 28 27 27 26 25 25 25 25 25 26 27 28 30 31 32 34 35 35 35 34 33 32 31 33 34 35 37 38 38 38 38 39 39 38
30 30 29 28 27 27 26 24 24 24 24 24 24 25 27 28 29 30 32 33 33 32 32 31 30 29 30 32 34 36 36 37 37 36 36 37 37 37
30 29 29 28 27 27 26 25 25 24 24 23 24 25 26 27 28 29 30 30 30 29 28 27 27 27 29 32 33 35 35 36 36 36 36 36 36 36
31 30 28 27 27 27 26 25 24 24 23 23 24 24 25 27 28 28 28 27 26 25 25 25 25 27 29 31 33 34 34 35 35 35 36 36 36 35

GEFSNE_500_meanwind_180.txt.gz
Wind_Speed
56 55 53 51 49 47 45 44 42 40 39 38 37 35 35 35 36 37 37 37 37 38 39 40 41 42 44 45 47 49 50 52 53 54 55 56 57 57
55 53 52 50 48 46 44 43 42 40 38 37 37 35 35 35 36 37 37 37 38 38 39 40 41 42 45 46 48 49 50 52 53 54 55 56 56 56
52 52 51 50 47 46 44 43 41 40 38 37 36 36 36 36 35 35 36 37 38 38 38 39 41 43 45 46 48 49 51 53 53 54 55 55 55 55
51 51 50 49 46 45 44 44 42 39 38 37 37 36 36 35 34 35 36 37 37 37 38 40 42 43 45 46 48 50 51 52 53 53 54 54 55 55
50 49 50 48 45 44 43 42 41 39 38 37 36 36 35 34 34 34 35 36 36 37 39 40 42 43 45 47 49 50 51 52 52 53 53 53 53 54
49 48 48 47 45 43 42 41 39 38 38 37 35 35 34 34 34 33 34 35 36 37 39 40 42 43 45 48 49 50 51 51 52 52 51 52 53 53
47 46 44 43 44 43 41 39 37 36 36 36 35 34 33 33 33 32 33 34 35 37 39 41 42 44 46 48 49 50 50 51 51 51 51 52 52 53
45 44 43 42 41 40 38 37 36 35 35 33 33 32 32 32 32 32 33 34 36 37 39 40 42 44 46 47 48 49 50 50 50 50 50 51 52 53
42 42 41 41 39 38 37 35 34 33 32 31 31 31 30 31 31 32 33 34 36 37 38 40 42 43 45 46 47 48 49 50 49 49 50 51 51 52
39 38 39 40 38 37 36 34 33 32 32 31 30 30 30 30 31 32 33 35 36 37 38 39 41 43 45 46 47 48 49 49 49 49 49 50 51 52
38 37 39 39 37 35 34 33 32 32 31 31 30 30 30 31 31 32 33 34 35 36 38 39 41 43 45 46 47 48 48 48 48 49 49 49 49 50
39 38 38 36 36 35 34 33 31 30 30 30 29 29 30 31 31 32 33 33 34 36 37 40 42 43 45 46 47 47 47 47 48 47 47 47 48 49
39 36 34 34 35 35 33 31 30 30 29 29 28 28 29 30 31 31 32 33 34 36 38 40 42 43 44 45 45 46 46 46 46 45 45 46 48 49
36 34 33 33 34 34 32 31 30 28 27 27 27 27 28 29 30 31 31 32 34 36 38 40 41 42 43 43 44 44 44 44 43 43 43 45 47 48
34 33 32 32 32 32 30 29 28 27 26 26 27 27 28 28 29 30 31 32 34 36 38 39 39 40 41 42 42 41 41 41 41 42 43 45 46 46
33 32 31 30 30 30 29 28 27 26 26 26 26 27 27 28 29 30 31 32 33 35 36 37 38 39 40 40 40 39 40 40 40 41 43 44 45 45
32 31 29 29 30 30 29 28 27 26 26 25 25 26 26 27 28 29 30 31 32 33 35 35 36 37 38 38 38 39 39 39 40 41 42 43 44 43
31 30 29 28 30 31 29 27 26 25 24 24 24 25 26 27 27 28 29 29 30 31 33 34 35 36 36 36 37 37 37 39 40 41 42 42 41 41
31 29 28 28 28 28 28 26 26 25 25 24 24 25 26 26 27 27 27 28 28 30 32 33 34 34 34 34 34 35 36 38 39 40 40 40 39 39
31 29 28 28 28 28 28 27 27 26 25 25 25 24 25 25 25 25 26 26 28 30 31 32 32 32 32 32 33 34 35 37 37 38 38 38 38 37
32 31 30 29 28 27 27 27 27 26 26 25 25 24 24 23 23 24 25 26 27 29 29 29 30 30 30 31 32 34 35 36 36 36 36 35 35 34
32 30 30 29 28 27 27 26 26 25 24 24 24 23 22 22 22 22 24 25 26 27 28 28 28 28 29 30 31 32 33 34 34 34 34 33 32 31
32 31 30 28 28 27 26 26 25 24 24 23 23 22 21 21 22 22 23 24 26 26 25 25 25 26 27 28 29 30 31 32 33 33 32 30 29 29

GEFSNE_500_meanwind_186.txt.gz
Wind_Speed
61 61 60 59 58 56 56 55 53 52 52 49 47 46 45 44 42 41 40 40 40 40 40 40 41 40 41 41 41 42 43 44 46 47 49 51 52 53
59 58 57 56 56 56 55 53 52 51 50 49 48 46 45 44 43 41 41 40 40 41 40 40 39 39 40 40 41 42 43 45 47 48 50 52 53 53
58 56 55 54 54 54 54 53 51 50 50 49 48 46 45 44 43 42 41 41 41 40 39 38 38 38 39 40 41 42 43 45 47 49 51 52 52 52
56 55 54 53 52 52 52 50 49 48 49 48 46 45 43 43 42 41 40 40 39 39 38 38 37 38 38 40 41 43 44 46 48 49 50 51 51 52
54 55 54 53 52 51 51 50 48 47 48 47 44 43 42 41 39 39 38 38 37 37 36 37 37 37 38 40 41 43 45 47 48 49 49 50 51 51
53 53 54 53 51 51 50 49 48 47 47 46 43 41 39 38 37 36 36 35 35 35 35 36 37 37 39 40 42 44 46 47 48 48 49 50 50 51
51 51 50 51 50 48 48 47 47 47 46 44 41 39 38 36 34 34 34 33 33 33 34 36 36 37 39 40 42 44 45 46 47 47 48 49 50 50
48 48 48 49 47 47 46 46 45 44 43 41 39 38 36 35 34 32 31 31 32 33 34 35 36 37 39 40 42 43 44 45 46 47 47 48 49 50
46 46 46 46 45 46 44 43 41 40 40 37 36 35 34 33 33 31 30 31 32 33 33 34 36 37 38 40 41 42 43 44 45 46 47 48 49 50
42 43 42 42 43 42 41 40 39 39 39 36 35 34 34 33 32 30 30 31 31 32 32 34 35 36 38 39 39 40 42 43 45 46 46 47 48 49
39 40 39 40 39 37 37 37 36 37 37 35 34 33 32 32 31 30 30 30 30 31 32 33 34 35 36 37 38 40 42 44 45 45 45 46 46 47
38 38 38 37 36 36 35 36 35 35 35 35 33 32 31 30 30 29 29 29 30 30 31 33 33 33 35 36 38 40 41 42 43 44 44 44 45 45
38 38 37 35 34 34 34 34 33 33 33 33 32 31 30 29 28 29 29 29 29 30 30 31 31 33 35 36 38 39 40 42 42 42 43 43 43 43
36 36 35 34 32 32 32 32 31 31 31 30 29 29 28 27 28 28 28 29 28 28 28 29 30 32 34 35 36 38 40 41 41 41 41 41 41 40
35 35 35 34 32 30 30 30 29 28 28 28 27 26 26 26 26 27 27 27 27 26 27 28 29 31 33 34 35 37 39 39 39 40 39 39 39 38
35 34 34 34 33 31 29 29 28 27 26 25 25 25 25 25 26 26 26 25 25 25 26 27 28 30 31 33 35 37 38 38 38 38 38 38 37 35
35 34 34 33 32 31 30 29 28 26 25 25 24 24 24 24 24 24 24 23 24 25 25 26 27 30 31 33 34 35 36 35 35 36 36 35 33 33
34 34 33 32 31 31 30 28 27 26 26 25 23 23 23 23 22 22 22 22 23 23 24 26 27 29 31 31 32 33 33 34 34 33 33 32 30 30
33 34 34 33 32 31 29 27 25 25 26 25 23 22 22 21 21 22 22 22 22 23 24 25 27 28 29 30 30 31 31 31 31 31 30 28 28 28
32 31 31 31 30 29 28 26 25 25 25 24 23 22 21 21 21 21 21 21 22 22 23 25 26 27 28 28 28 28 29 28 29 28 26 26 26 26
31 30 31 30 29 29 28 26 25 24 23 23 22 22 20 19 20 20 20 20 21 22 23 24 25 26 26 26 25 26 26 26 26 24 24 24 24 24
32 32 30 29 28 28 27 27 26 24 24 23 22 21 20 19 19 19 19 19 20 22 23 24 25 24 23 23 23 24 23 23 22 21 21 21 21 23
30 30 29 28 28 27 27 27 26 24 23 23 22 20 19 18 18 18 18 19 20 21 22 22 22 21 20 21 21 21 20 20 19 19 19 20 21 22